Weather in Baychurovo

Russia / Voronezh Oblast     51°20′32″N   42°41′09″E
temp.,
°C
wind,
m/s
gust,
m/s
humid.,
%
clouds,
%
prec.,
mm/h
press.,
hPa
HPBL,
m
25 february, thu
thu2500:00−19ssw368796 0.0 1039163
03:00−17s489298 0.0 1037240
06:00−15ssw51095100 0.5 1034362
09:00−12ssw61195100 1.2 1031435
12:00−10ssw71294100 1.1 1028503
15:00−7sw71295100 2.9 1025542
18:00−5sw71496100 1.0 1021462
21:00−2wsw71396100 2.2 1018378
26 february, fri
fri2600:00+1w51199100 0.1 1017360
03:00+1w4999100 0.1 1017225
06:00+1w49100100 0.6 1016251
09:00+1w48100100 0.6 1017215
12:00+1w510100100 0.4 1016267
15:00+2w512100100 0.4 1014299
18:00+2w61399100 0.0 1012427
21:00+2wsw71599100 0.5 1011393
27 february, sat
sat2700:00+2w71599100 0.1 1009468
03:00+1w61397100 0.1 1009481
06:00+1w61194100 0.0 1007424
09:00+1w61298100 0.1 1007511
12:00+1w611100100 0.1 1006544
15:00+1w612100100 0.2 1006592
18:000w6139899 0.1 1005577
21:00+1wnw71297100 0.3 1006586
28 february, sun
sun2800:000wnw61297100 0.2 1006576
03:00−4nnw5109098 0.7 1008434
06:00−8nnw499492 0.0 1010310
09:00−8nnw479291 0.0 1012473
12:00−8nnw5790100 0.0 1014519
15:00−7nnw5789100 0.1 1015608
18:00−8nnw4892100 0.1 1017390
21:00−8nnw4893100 0.1 1020562
1 march, mon
mon100:00−10nnw379693 0.0 1021256
03:00−10nnw369589 0.1 1022165
06:00−11nnw359635 0.0 1024141
09:00−10n479351 0.0 1026422
12:00−9nnw468897 0.0 1027554
15:00−8nnw468998 0.1 1028596
18:00−10nw339494 0.0 102960
21:00−9wnw339592 0.1 103063